Regional Weather Roundup
Issued by NWS

Home | Current Version | Previous Version | Graphics & Text | Print | Product List | Glossary On
Versions: 1 2 3 4 5 6 7 8 9 10 11 12 13 14 15 16 17 18 19 20 21 22 23 24 25 26 27 28 29 30 31 32 33 34 35 36 37 38 39 40 41 42 43 44 45 46 47 48 49 50
000
ASUS43 KOAX 222110
RWRNE

WEATHER ROUNDUP FOR NEBRASKA
NATIONAL WEATHER SERVICE OMAHA NE
300 PM CST WED FEB 22 2017

NOTES: SATELLITE DATA IS BEING USED TO AUGMENT CLOUD COVER ABOVE
       12000 FEET.
       "FAIR" INDICATES FEW OR NO CLOUDS BELOW 12,000 FEET WITH NO
       SIGNIFICANT WEATHER AND/OR OBSTRUCTIONS TO VISIBILITY.

  * THESE STATIONS DO NOT REPORT WEATHER SUCH AS RAIN...SNOW OR FOG.

NEZ001>004-019>022-054>056-222200-
NEBRASKA PANHANDLE

CITY           SKY/WX    TMP DP  RH WIND       PRES   REMARKS
SCOTTSBLUFF    SUNNY     56  17  21 W20G28    29.79F
ALLIANCE       SUNNY     56  17  21 NW22G31   29.77S
CHADRON        SUNNY     56  20  24 NW22G31   29.77F
KIMBALL        SUNNY     54  21  28 NW17G26   29.79F
SIDNEY         SUNNY     59  14  17 N18G24    29.78F
$$

NEZ057>060-069>072-079>082-222200-
SOUTHWEST NEBRASKA

CITY           SKY/WX    TMP DP  RH WIND       PRES   REMARKS
NORTH PLATTE   SUNNY     65  21  18 NW16      29.75F
IMPERIAL       SUNNY     64  19  17 N12G18    29.76F
LEXINGTON      SUNNY     67  20  17 NW13G21   29.74S
MCCOOK         SUNNY     68  25  19 NW10      29.75F
OGALLALA       SUNNY     63  15  16 N9G18     29.77F
$$

NEZ005>010-023>029-035>040-094-222200-
NORTH CENTRAL NEBRASKA

CITY           SKY/WX    TMP DP  RH WIND       PRES   REMARKS
VALENTINE      SUNNY     57  22  25 NW16G23   29.74F
AINSWORTH      MOSUNNY   58  31  36 NW13G23   29.74S
BROKEN BOW     SUNNY     66  22  18 NW16      29.72F
O`NEILL        SUNNY     62  31  31 NW18G26   29.72R
ORD            SUNNY     66  26  22 NW15      29.70F
THEDFORD       MOSUNNY   60  24  25 NW13      29.75S
$$

NEZ041-046>049-061>064-073>077-083>087-222200-
SOUTH CENTRAL NEBRASKA

CITY           SKY/WX    TMP DP  RH WIND       PRES   REMARKS
GRAND ISLAND   SUNNY     69  23  17 NW18G26   29.69F
AURORA         SUNNY     71  25  18 NW18      29.69S
HASTINGS       SUNNY     71  27  19 NW12      29.70F
HEBRON         CLOUDY    73  30  20 N8G16     29.66F
HOLDREGE       SUNNY     68  21  16 NW8G16    29.72F
KEARNEY *      SUNNY     70  25  18 NW13      29.72F
YORK           SUNNY     72  27  18 NW16G24   29.67S
$$

NEZ011>018-030>034-042>045-222200-
NORTHEAST NEBRASKA

CITY           SKY/WX    TMP DP  RH WIND       PRES   REMARKS
NORFOLK        SUNNY     66  33  29 NW20G26   29.67R
ALBION         SUNNY     67  32  26 N15G23    29.69S
BLAIR          SUNNY     70  38  31 NW14G21   29.64S
FREMONT        SUNNY     73  32  22 NW15      29.64F
TEKAMAH        SUNNY     70  38  31 NW20G30   29.63S
WAYNE          SUNNY     66  35  32 NW21G32   29.67R
$$

NEZ050>053-065>068-078-088>093-222200-
SOUTHEAST NEBRASKA

CITY           SKY/WX    TMP DP  RH WIND       PRES   REMARKS
LINCOLN        SUNNY     75  35  23 N12       29.65S
OMAHA EPPLEY   MOSUNNY   73  36  25 NW17      29.62S
BEATRICE       SUNNY     76  37  24 NW12      29.64F
FALLS CITY     SUNNY     76  34  21 NW13      29.62F
NEBRASKA CITY  SUNNY     73  26  17 NW8       29.64S
PLATTSMOUTH    SUNNY     72  31  22 NW8       29.63F
$$

NEZ044-045-051>053-067-222200-
OMAHA AREA

CITY           SKY/WX    TMP DP  RH WIND       PRES   REMARKS
OMAHA EPPLEY   MOSUNNY   73  36  25 NW17      29.62S
BLAIR          SUNNY     70  38  31 NW14G21   29.64S
FREMONT        SUNNY     73  32  22 NW15      29.64F
MILLARD        SUNNY     74  39  28 NW12      29.63F
OFFUTT AFB     SUNNY     74  39  28 NW12      29.63R
PLATTSMOUTH    SUNNY     72  31  22 NW8       29.63F
WAHOO          FAIR      73  33  23 NW13G20   29.63F
$$




USA.gov is the U.S. government's official web portal to all federal, state and local government web resources and services.